When you browse on this site, cookies collect data to enhance your experience and personalize the content and advertising you see.
Visit our Privacy Policy to learn more. By continuing to use the site, you agree to this use of cookies and data.
  • In Hungary
  • List of Countries
  • For 7 days
  • Water Temperature
  • Weather Map
  • News
  • Weather Widgets
  • user-avatar
    Login

    Hourly Weather Blagodatnaya

    Today, 20 August, Tuesday

    Time Temperature Precipitation Wind Pressure Humidity
    00:00 +23°C° 0 mm 1 mps 756 mmHg 63%
    01:00 +23°C° 0 mm 1 mps 756 mmHg 62%
    02:00 +23°C° 0 mm 1 mps 756 mmHg 62%
    03:00 +23°C° 0 mm 2 mps 756 mmHg 61%
    04:00 +23°C° 0 mm 2 mps 756 mmHg 66%
    05:00 +21°C° 0 mm 2 mps 756 mmHg 70%
    06:00 +21°C° 0 mm 2 mps 756 mmHg 74%
    07:00 +22°C° 0 mm 3 mps 756 mmHg 75%
    08:00 +24°C° 0 mm 3 mps 756 mmHg 76%
    09:00 +25°C° 0 mm 3 mps 756 mmHg 76%
    10:00 +26°C° 0 mm 4 mps 756 mmHg 73%
    11:00 +27°C° 0 mm 4 mps 756 mmHg 70%
    12:00 +27°C° 0 mm 4 mps 756 mmHg 67%
    13:00 +27°C° 0 mm 4 mps 757 mmHg 67%
    14:00 +27°C° 0 mm 4 mps 757 mmHg 66%
    15:00 +27°C° 0 mm 4 mps 757 mmHg 66%
    16:00 +26°C° 0 mm 3 mps 757 mmHg 71%
    17:00 +25°C° 0 mm 3 mps 757 mmHg 76%
    18:00 +24°C° 0 mm 3 mps 757 mmHg 81%
    19:00 +23°C° 0 mm 2 mps 757 mmHg 84%
    20:00 +21°C° 0 mm 2 mps 757 mmHg 88%
    21:00 +20°C° 0 mm 2 mps 757 mmHg 91%
    22:00 +19°C° 0 mm 2 mps 757 mmHg 92%
    23:00 +19°C° 0 mm 2 mps 757 mmHg 94%

    Tomorrow, 21 August, Wednesday

    Time Temperature Precipitation Wind Pressure Humidity
    00:00 +18°C° 0 mm 2 mps 757 mmHg 96%
    01:00 +18°C° 0 mm 2 mps 757 mmHg 96%
    02:00 +17°C° 0 mm 2 mps 757 mmHg 96%
    03:00 +17°C° 0 mm 2 mps 758 mmHg 96%
    04:00 +17°C° 0 mm 2 mps 758 mmHg 95%
    05:00 +17°C° 0 mm 2 mps 758 mmHg 94%
    06:00 +18°C° 0 mm 2 mps 758 mmHg 92%
    07:00 +19°C° 0 mm 2 mps 758 mmHg 88%
    08:00 +21°C° 0 mm 3 mps 758 mmHg 83%
    09:00 +22°C° 0 mm 3 mps 758 mmHg 79%
    10:00 +24°C° 0 mm 3 mps 758 mmHg 76%
    11:00 +24°C° 0 mm 3 mps 758 mmHg 74%
    12:00 +25°C° 0 mm 3 mps 758 mmHg 72%
    13:00 +25°C° 0 mm 3 mps 758 mmHg 72%
    14:00 +25°C° 0 mm 3 mps 758 mmHg 73%
    15:00 +25°C° 0 mm 3 mps 758 mmHg 74%
    16:00 +24°C° 0 mm 3 mps 758 mmHg 78%
    17:00 +22°C° 0 mm 3 mps 758 mmHg 81%
    18:00 +21°C° 0 mm 3 mps 758 mmHg 85%
    19:00 +20°C° 0 mm 2 mps 758 mmHg 88%
    20:00 +19°C° 0 mm 2 mps 759 mmHg 90%
    21:00 +17°C° 0 mm 2 mps 759 mmHg 93%
    22:00 +18°C° 0 mm 1 mps 759 mmHg 93%
    23:00 +18°C° 0 mm 1 mps 759 mmHg 93%

    Day after tomorrow, 22 August, Thursday

    Time Temperature Precipitation Wind Pressure Humidity
    00:00 +16°C° 0 mm 1 mps 759 mmHg 92%
    01:00 +16°C° 0 mm 1 mps 759 mmHg 92%
    02:00 +16°C° 0 mm 1 mps 759 mmHg 93%
    03:00 +16°C° 0 mm 1 mps 759 mmHg 93%
    04:00 +16°C° 0 mm 1 mps 759 mmHg 91%
    05:00 +18°C° 0 mm 1 mps 759 mmHg 90%
    06:00 +18°C° 0 mm 1 mps 759 mmHg 88%
    07:00 +20°C° 0 mm 1 mps 759 mmHg 84%
    08:00 +21°C° 0 mm 1 mps 759 mmHg 79%
    09:00 +22°C° 0 mm 1 mps 759 mmHg 74%
    10:00 +21°C° 0 mm 0 mps 759 mmHg 70%
    11:00 +23°C° 0 mm 0 mps 759 mmHg 66%
    12:00 +24°C° 0 mm 0 mps 759 mmHg 62%
    13:00 +24°C° 0 mm 0 mps 759 mmHg 61%
    14:00 +24°C° 0 mm 0 mps 759 mmHg 61%
    15:00 +26°C° 0 mm 1 mps 759 mmHg 60%
    16:00 +25°C° 0 mm 1 mps 758 mmHg 65%
    17:00 +24°C° 0 mm 1 mps 758 mmHg 70%
    18:00 +21°C° 0 mm 0 mps 758 mmHg 75%
    19:00 +22°C° 0 mm 1 mps 758 mmHg 78%
    20:00 +21°C° 0 mm 1 mps 758 mmHg 82%
    21:00 +20°C° 0 mm 1 mps 758 mmHg 85%
    22:00 +20°C° 0 mm 1 mps 758 mmHg 87%
    23:00 +19°C° 0 mm 1 mps 758 mmHg 88%

    23 August, Friday

    Time Temperature Precipitation Wind Pressure Humidity
    00:00 +18°C° 0 mm 2 mps 758 mmHg 90%
    01:00 +18°C° 0 mm 2 mps 758 mmHg 91%
    02:00 +17°C° 0 mm 2 mps 758 mmHg 91%
    03:00 +17°C° 0 mm 2 mps 758 mmHg 92%
    04:00 +18°C° 0 mm 2 mps 758 mmHg 91%
    05:00 +18°C° 0 mm 2 mps 758 mmHg 90%
    06:00 +19°C° 0 mm 2 mps 757 mmHg 89%
    07:00 +20°C° 0 mm 2 mps 757 mmHg 84%
    08:00 +22°C° 0 mm 3 mps 758 mmHg 79%
    09:00 +25°C° 0 mm 3 mps 758 mmHg 75%
    10:00 +25°C° 0.3 mm 3 mps 758 mmHg 75%
    11:00 +25°C° 0.3 mm 3 mps 758 mmHg 75%
    12:00 +26°C° 0.3 mm 3 mps 758 mmHg 75%
    13:00 +25°C° 0.4 mm 3 mps 758 mmHg 78%
    14:00 +23°C° 0.4 mm 4 mps 758 mmHg 80%
    15:00 +22°C° 0.4 mm 4 mps 758 mmHg 83%
    16:00 +21°C° 0 mm 3 mps 758 mmHg 83%
    17:00 +21°C° 0 mm 3 mps 758 mmHg 84%
    18:00 +20°C° 0 mm 2 mps 758 mmHg 84%
    19:00 +19°C° 0 mm 2 mps 758 mmHg 84%
    20:00 +18°C° 0 mm 2 mps 758 mmHg 84%
    21:00 +17°C° 0 mm 2 mps 758 mmHg 84%
    22:00 +16°C° 0 mm 2 mps 758 mmHg 83%
    23:00 +16°C° 0 mm 2 mps 758 mmHg 83%

    24 August, Saturday

    Time Temperature Precipitation Wind Pressure Humidity
    00:00 +15°C° 0 mm 2 mps 758 mmHg 82%
    01:00 +15°C° 0 mm 2 mps 758 mmHg 83%
    02:00 +15°C° 0 mm 2 mps 758 mmHg 83%
    03:00 +15°C° 0 mm 2 mps 758 mmHg 83%
    04:00 +15°C° 0 mm 2 mps 758 mmHg 83%
    05:00 +15°C° 0 mm 2 mps 758 mmHg 82%
    06:00 +16°C° 0 mm 2 mps 758 mmHg 82%
    07:00 +16°C° 0.2 mm 2 mps 758 mmHg 83%
    08:00 +16°C° 0.2 mm 2 mps 758 mmHg 85%
    09:00 +15°C° 0.2 mm 2 mps 758 mmHg 87%
    10:00 +17°C° 0.1 mm 2 mps 758 mmHg 79%
    11:00 +18°C° 0.1 mm 2 mps 758 mmHg 71%
    12:00 +19°C° 0.1 mm 2 mps 758 mmHg 62%
    13:00 +20°C° 0 mm 2 mps 758 mmHg 60%
    14:00 +21°C° 0 mm 1 mps 758 mmHg 57%
    15:00 +22°C° 0 mm 1 mps 757 mmHg 54%
    16:00 +21°C° 0 mm 1 mps 757 mmHg 60%
    17:00 +20°C° 0 mm 1 mps 757 mmHg 65%
    18:00 +19°C° 0 mm 1 mps 757 mmHg 71%
    19:00 +18°C° 0 mm 1 mps 757 mmHg 73%
    20:00 +16°C° 0 mm 1 mps 757 mmHg 75%
    21:00 +15°C° 0 mm 2 mps 757 mmHg 77%
    22:00 +15°C° 0 mm 2 mps 757 mmHg 81%
    23:00 +14°C° 0 mm 1 mps 757 mmHg 84%

    25 August, Sunday

    Time Temperature Precipitation Wind Pressure Humidity
    00:00 +14°C° 0 mm 1 mps 757 mmHg 87%
    01:00 +14°C° 0 mm 1 mps 757 mmHg 89%
    02:00 +13°C° 0 mm 2 mps 757 mmHg 90%
    03:00 +13°C° 0 mm 2 mps 757 mmHg 91%
    04:00 +13°C° 0 mm 2 mps 757 mmHg 90%
    05:00 +14°C° 0 mm 2 mps 757 mmHg 90%
    06:00 +14°C° 0 mm 2 mps 757 mmHg 89%
    07:00 +16°C° 0 mm 2 mps 757 mmHg 83%
    08:00 +17°C° 0 mm 3 mps 757 mmHg 77%
    09:00 +19°C° 0 mm 3 mps 757 mmHg 71%
    10:00 +20°C° 0 mm 4 mps 757 mmHg 69%
    11:00 +21°C° 0 mm 4 mps 757 mmHg 66%
    12:00 +21°C° 0 mm 5 mps 756 mmHg 64%
    13:00 +22°C° 0 mm 5 mps 756 mmHg 64%
    14:00 +22°C° 0 mm 5 mps 756 mmHg 64%
    15:00 +22°C° 0 mm 5 mps 755 mmHg 64%
    16:00 +21°C° 0.1 mm 5 mps 755 mmHg 69%
    17:00 +20°C° 0.1 mm 5 mps 755 mmHg 74%
    18:00 +19°C° 0.1 mm 4 mps 755 mmHg 78%
    19:00 +18°C° 0.3 mm 4 mps 754 mmHg 82%
    20:00 +18°C° 0.3 mm 4 mps 754 mmHg 86%
    21:00 +17°C° 0.3 mm 4 mps 754 mmHg 89%
    22:00 +17°C° 0.3 mm 4 mps 754 mmHg 91%
    23:00 +15°C° 0.3 mm 4 mps 754 mmHg 93%
    Show more